FW7330 Weather Reports


time (UTC)temp
C
wind
direction
speed
KPH
gust
KPH
rain 1hr
cm
rain 24hr
cm
rain mn
cm
humidity
%
barometer
mb
20260510022616 21 146 9.7 16.1 0.00 0.00 0.00 55 1031.4
20260510021426 21 146 6.4 11.3 0.00 0.00 0.00 56 1031.4
20260510020132 22 136 6.4 12.9 0.00 0.00 0.00 54 1031.6
20260510014941 22 53 3.2 9.7 0.00 0.00 0.00 55 1031.5
20260510013831 22 43 4.8 6.4 0.00 0.00 0.00 57 1031.6
20260510012601 21 106 4.8 6.4 0.00 0.00 0.00 58 1031.7
20260510011412 21 103 6.4 11.3 0.00 0.00 0.00 62 1031.7
20260510010222 21 114 4.8 12.9 0.00 0.00 0.00 60 1031.9
20260510004929 22 162 1.6 1.6 0.00 0.00 0.00 51 1031.9
20260510003739 21 137 3.2 6.4 0.00 0.00 0.00 55 1031.8
20260510002654 21 234 1.6 3.2 0.00 0.00 0.00 56 1031.9
20260510001400 21 282 3.2 6.4 0.00 0.00 0.00 59 1031.8
20260510000211 20 288 3.2 6.4 0.00 0.00 0.00 59 1031.7
20260509234957 21 247 1.6 3.2 0.00 0.00 0.00 58 1031.6
20260509233727 20 292 1.6 3.2 0.00 0.00 0.00 60 1031.7
20260509232642 18 241 1.6 1.6 0.00 0.00 0.00 68 1031.7
20260509231448 18 244 0.0 1.6 0.00 0.00 0.00 73 1031.7
20260509230158 17 247 1.6 3.2 0.00 0.00 0.00 78 1031.7
20260509225009 16 230 0.0 4.8 0.00 0.00 0.00 81 1031.7
20260509223715 15 0.0 1.6 0.00 0.00 0.00 86 1031.7
20260509222628 14 177 1.6 1.6 0.00 0.00 0.00 88 1031.6
20260509221438 13 0.0 0.0 0.00 0.00 0.00 89 1031.5
20260509220143 13 0.0 0.0 0.00 0.00 0.00 91 1031.4
20260509214953 11 0.0 0.0 0.00 0.00 0.00 93 1031.3
20260509213804 10 162 1.6 1.6 0.00 0.00 0.00 94 1031.2
20260509212614 10 161 0.0 1.6 0.00 0.00 0.00 95 1031.1
20260509211424 8 162 1.6 1.6 0.00 0.00 0.00 95 1030.8
20260509210211 8 144 1.6 3.2 0.00 0.00 0.00 95 1030.7
20260509204942 8 161 1.6 1.6 0.00 0.00 0.00 95 1030.6
20260509203752 8 162 0.0 1.6 0.00 0.00 0.00 95 1030.4
20260509202603 8 163 0.0 1.6 0.00 0.00 0.00 95 1030.3
20260509201452 8 164 1.6 1.6 0.00 0.00 0.00 95 1030.0
20260509200222 8 164 0.0 1.6 0.00 0.00 0.00 94 1029.9
20260509195008 8 0.0 0.0 0.00 0.00 0.00 94 1029.9
20260509193738 8 0.0 0.0 0.00 0.00 0.00 94 1029.7
20260509192652 8 157 1.6 3.2 0.00 0.00 0.00 94 1029.5
20260509191459 8 132 3.2 3.2 0.00 0.00 0.00 94 1029.4
20260509190250 8 153 1.6 3.2 0.00 0.00 0.00 94 1029.2
20260509185019 8 0.0 0.0 0.00 0.00 0.00 94 1029.1
20260509183727 8 0.0 0.0 0.00 0.00 0.00 94 1028.9
20260509182721 8 159 0.0 1.6 0.00 0.00 0.00 94 1028.9
20260509181346 8 160 0.0 1.6 0.00 0.00 0.00 94 1028.8
20260509180236 8 155 1.6 3.2 0.00 0.00 0.00 94 1028.8
20260509175007 8 0.0 0.0 0.00 0.00 0.00 94 1028.7
20260509173754 8 0.0 0.0 0.00 0.00 0.00 94 1028.8
20260509172627 8 0.0 0.0 0.00 0.00 0.00 93 1028.7
20260509171438 8 159 1.6 1.6 0.00 0.00 0.00 93 1028.7
20260509170144 8 161 0.0 1.6 0.00 0.00 0.00 93 1028.7
20260509164954 8 160 1.6 1.6 0.00 0.00 0.00 93 1028.8
20260509163804 8 166 1.6 1.6 0.00 0.00 0.00 93 1028.7
20260509162614 8 166 1.6 1.6 0.00 0.00 0.00 93 1028.8
20260509161423 8 0.0 1.6 0.00 0.00 0.00 93 1028.8
20260509160232 8 0.0 0.0 0.00 0.00 0.00 93 1028.9
20260509154939 8 175 0.0 1.6 0.00 0.00 0.00 93 1029.0
20260509153748 8 158 1.6 3.2 0.00 0.00 0.00 93 1028.9
20260509152700 8 156 1.6 3.2 0.00 0.00 0.00 92 1028.9
20260509151407 8 0.0 0.0 0.00 0.00 0.00 92 1029.0
20260509150217 8 157 1.6 1.6 0.00 0.00 0.00 92 1029.0
20260509145026 9 0.0 1.6 0.00 0.00 0.00 91 1029.1
20260509143734 9 157 1.6 1.6 0.00 0.00 0.00 91 1029.0
20260509142543 9 157 0.0 1.6 0.00 0.00 0.00 91 1028.9
20260509141353 9 155 1.6 3.2 0.00 0.00 0.00 91 1029.1
20260509140203 9 153 1.6 1.6 0.00 0.00 0.00 91 1029.1
20260509135013 9 162 0.0 1.6 0.00 0.00 0.00 91 1029.1
20260509133718 9 162 1.6 1.6 0.00 0.00 0.00 91 1029.1
20260509132529 9 162 0.0 1.6 0.00 0.00 0.00 90 1029.3
20260509131522 9 162 1.6 1.6 0.00 0.00 0.00 90 1029.3
20260509130147 10 0.0 1.6 0.00 0.00 0.00 90 1029.2
20260509124959 10 0.0 0.0 0.00 0.00 0.00 89 1029.4
20260509123809 10 162 1.6 3.2 0.00 0.00 0.00 89 1029.3
20260509122516 10 162 1.6 1.6 0.00 0.00 0.00 89 1029.5
20260509121429 10 162 0.0 1.6 0.00 0.00 0.00 89 1029.6
20260509120240 10 0.0 1.6 0.00 0.00 0.00 89 1029.5
20260509114944 10 161 1.6 1.6 0.00 0.00 0.00 89 1029.5
20260509113834 10 157 1.6 3.2 0.00 0.00 0.00 88 1029.4
20260509112644 10 162 1.6 1.6 0.00 0.00 0.00 88 1029.5
20260509111412 11 170 1.6 1.6 0.00 0.00 0.00 88 1029.5
20260509110221 10 178 0.0 1.6 0.00 0.00 0.00 88 1029.3
20260509105031 10 149 1.6 3.2 0.00 0.00 0.00 87 1029.3
20260509103738 11 164 1.6 1.6 0.00 0.00 0.00 87 1029.1
20260509102728 11 0.0 0.0 0.00 0.00 0.00 86 1029.2
20260509101358 11 153 1.6 3.2 0.00 0.00 0.00 86 1029.0
20260509100208 11 147 1.6 3.2 0.00 0.00 0.00 86 1028.9
20260509095018 11 160 1.6 3.2 0.00 0.00 0.00 85 1028.9
20260509093725 11 170 1.6 3.2 0.00 0.00 0.00 85 1028.7
20260509092535 11 135 3.2 3.2 0.00 0.00 0.00 85 1028.7
20260509091449 12 164 1.6 1.6 0.00 0.00 0.00 84 1028.6
20260509090155 12 0.0 0.0 0.00 0.00 0.00 81 1028.5
20260509085005 12 168 1.6 1.6 0.00 0.00 0.00 80 1028.3
20260509083816 13 131 3.2 3.2 0.00 0.00 0.00 78 1028.2
20260509082522 13 0.0 0.0 0.00 0.00 0.00 76 1028.0
20260509081435 14 0.0 1.6 0.00 0.00 0.00 75 1027.8
20260509080246 15 132 0.0 1.6 0.00 0.00 0.00 73 1027.7
20260509074953 15 172 1.6 4.8 0.00 0.00 0.00 71 1027.4
20260509073802 16 182 1.6 3.2 0.00 0.00 0.00 70 1027.3
20260509072528 16 136 3.2 6.4 0.00 0.00 0.00 68 1027.1
20260509071522 17 121 6.4 14.5 0.00 0.00 0.00 67 1027.0
20260509070227 17 110 8.0 12.9 0.00 0.00 0.00 66 1027.0
20260509064934 17 88 6.4 12.9 0.00 0.00 0.00 64 1026.6
20260509063824 17 99 6.4 11.3 0.00 0.00 0.00 62 1026.7
20260509062633 18 120 9.7 14.5 0.00 0.00 0.00 61 1026.7
20260509061403 18 71 9.7 17.7 0.00 0.00 0.00 60 1026.5
20260509060213 18 125 11.3 17.7 0.00 0.00 0.00 59 1026.3
20260509055023 18 106 11.3 22.5 0.00 0.00 0.00 58 1026.2
20260509053729 18 93 8.0 16.1 0.00 0.00 0.00 57 1026.0
20260509052539 18 82 8.0 17.7 0.00 0.00 0.00 56 1025.9
20260509051452 19 90 12.9 24.1 0.00 0.00 0.00 56 1025.9
20260509050239 20 115 8.0 16.1 0.00 0.00 0.00 55 1025.9
20260509045049 20 105 11.3 16.1 0.00 0.00 0.00 54 1025.7
20260509043819 21 124 8.0 11.3 0.00 0.00 0.00 51 1026.0
20260509042626 20 107 9.7 20.9 0.00 0.00 0.00 49 1025.7
20260509041440 21 123 8.0 14.5 0.00 0.00 0.00 49 1026.0
20260509040249 20 116 9.7 16.1 0.00 0.00 0.00 49 1025.8
20260509035036 20 99 4.8 12.9 0.00 0.00 0.00 49 1026.0
20260509033806 20 130 8.0 14.5 0.00 0.00 0.00 49 1025.9
20260509032513 20 161 6.4 16.1 0.00 0.00 0.00 49 1026.1
20260509031427 20 123 8.0 12.9 0.00 0.00 0.00 48 1026.3
20260509030237 20 99 6.4 12.9 0.00 0.00 0.00 48 1026.3
20260509024943 20 133 9.7 14.5 0.00 0.00 0.00 47 1026.4
20260509023752 20 122 8.0 14.5 0.00 0.00 0.00 46 1026.6